Time,TemperatureF,DewpointF,PressureIn,WindDirection,WindDirectionDegrees,WindSpeedMPH,WindSpeedGustMPH,Humidity,HourlyPrecipIn,Conditions,Clouds,dailyrainin,SoftwareType,DateUTC
2013-06-27 00:01:00,62.1,55.5,29.95,West,270,0.0,1.1,79,0.00,CLR,,0.00,WeatherDisplay:10.37,2013-06-27 06:01:00,
2013-06-27 00:06:00,61.9,55.3,29.95,SW,225,2.3,2.3,79,0.00,CLR,,0.00,WeatherDisplay:10.37,2013-06-27 06:06:00,
2013-06-27 00:11:00,61.9,55.3,29.95,SW,225,0.0,0.0,79,0.00,CLR,,0.00,WeatherDisplay:10.37,2013-06-27 06:11:00,
2013-06-27 00:17:00,61.5,55.3,29.95,SW,225,1.7,2.3,80,0.00,CLR,,0.00,WeatherDisplay:10.37,2013-06-27 06:17:00,
2013-06-27 00:22:00,61.5,55.3,29.95,SW,225,2.5,2.5,80,0.00,CLR,,0.00,WeatherDisplay:10.37,2013-06-27 06:22:00,
2013-06-27 00:27:00,61.3,55.1,29.95,SW,225,2.7,2.7,80,0.00,CLR,,0.00,WeatherDisplay:10.37,2013-06-27 06:27:00,
2013-06-27 00:32:00,61.3,55.1,29.95,SW,225,2.1,2.7,80,0.00,CLR,,0.00,WeatherDisplay:10.37,2013-06-27 06:32:00,
2013-06-27 00:37:00,61.0,55.1,29.95,WSW,248,0.2,1.1,81,0.00,CLR,,0.00,WeatherDisplay:10.37,2013-06-27 06:37:00,
2013-06-27 00:42:00,60.8,54.9,29.95,WSW,248,1.0,1.7,81,0.00,CLR,,0.00,WeatherDisplay:10.37,2013-06-27 06:42:00,
2013-06-27 00:47:00,60.6,54.7,29.95,SW,225,0.0,0.0,81,0.00,CLR,,0.00,WeatherDisplay:10.37,2013-06-27 06:47:00,
2013-06-27 00:52:00,60.4,54.5,29.95,SW,225,0.0,0.0,81,0.00,CLR,,0.00,WeatherDisplay:10.37,2013-06-27 06:52:00,
2013-06-27 00:57:00,60.3,54.8,29.95,SW,225,3.1,3.5,82,0.00,CLR,,0.00,WeatherDisplay:10.37,2013-06-27 06:57:00,
2013-06-27 01:02:00,60.1,54.6,29.95,WSW,248,3.3,3.5,82,0.00,CLR,,0.00,WeatherDisplay:10.37,2013-06-27 07:02:00,
2013-06-27 01:07:00,59.9,54.4,29.95,SW,225,0.8,2.3,82,0.00,CLR,,0.00,WeatherDisplay:10.37,2013-06-27 07:07:00,
2013-06-27 01:12:00,59.7,54.2,29.95,SW,225,2.0,2.3,82,0.00,CLR,,0.00,WeatherDisplay:10.37,2013-06-27 07:12:00,
2013-06-27 01:17:00,59.5,54.0,29.94,WSW,248,1.5,1.7,82,0.00,CLR,,0.00,WeatherDisplay:10.37,2013-06-27 07:17:00,
2013-06-27 01:22:00,59.4,54.2,29.94,SW,225,1.6,1.7,83,0.00,CLR,,0.00,WeatherDisplay:10.37,2013-06-27 07:22:00,
2013-06-27 01:27:00,59.2,54.4,29.95,WSW,248,0.0,0.0,84,0.00,CLR,,0.00,WeatherDisplay:10.37,2013-06-27 07:27:00,
2013-06-27 01:32:00,59.0,54.5,29.95,WSW,248,0.0,0.0,85,0.00,CLR,,0.00,WeatherDisplay:10.37,2013-06-27 07:32:00,
2013-06-27 01:37:00,58.8,54.3,29.95,WSW,248,0.0,0.0,85,0.00,CLR,,0.00,WeatherDisplay:10.37,2013-06-27 07:37:00,
2013-06-27 01:42:00,58.8,54.6,29.96,West,270,0.0,0.0,86,0.00,CLR,,0.00,WeatherDisplay:10.37,2013-06-27 07:42:00,
2013-06-27 01:47:00,58.6,54.4,29.96,West,270,0.0,0.0,86,0.00,CLR,,0.00,WeatherDisplay:10.37,2013-06-27 07:47:00,
2013-06-27 01:52:00,58.3,54.1,29.96,WNW,292,0.0,0.0,86,0.00,CLR,,0.00,WeatherDisplay:10.37,2013-06-27 07:52:00,
2013-06-27 01:57:00,58.3,54.1,29.96,West,270,0.0,0.0,86,0.00,CLR,,0.00,WeatherDisplay:10.37,2013-06-27 07:57:00,
2013-06-27 02:02:00,58.1,53.9,29.96,West,270,0.0,0.0,86,0.00,CLR,,0.00,WeatherDisplay:10.37,2013-06-27 08:02:00,
2013-06-27 02:07:00,58.3,54.1,29.96,SW,225,2.5,2.7,86,0.00,CLR,,0.00,WeatherDisplay:10.37,2013-06-27 08:07:00,
2013-06-27 02:12:00,58.6,54.1,29.96,SW,225,3.6,3.7,85,0.00,CLR,,0.00,WeatherDisplay:10.37,2013-06-27 08:12:00,
2013-06-27 02:17:00,58.6,54.1,29.96,SW,225,2.3,2.3,85,0.00,CLR,,0.00,WeatherDisplay:10.37,2013-06-27 08:17:00,
2013-06-27 02:22:00,58.5,54.3,29.96,SW,225,1.2,1.7,86,0.00,CLR,,0.00,WeatherDisplay:10.37,2013-06-27 08:22:00,
2013-06-27 02:27:00,58.5,54.3,29.96,SW,225,1.7,2.3,86,0.00,CLR,,0.00,WeatherDisplay:10.37,2013-06-27 08:27:00,
2013-06-27 02:32:00,58.5,54.3,29.96,SW,225,3.2,3.7,86,0.00,CLR,,0.00,WeatherDisplay:10.37,2013-06-27 08:32:00,
2013-06-27 02:37:00,58.3,54.1,29.96,SW,225,3.6,4.6,86,0.00,CLR,,0.00,WeatherDisplay:10.37,2013-06-27 08:37:00,
2013-06-27 02:42:00,58.1,53.9,29.96,WSW,248,3.1,3.5,86,0.00,CLR,,0.00,WeatherDisplay:10.37,2013-06-27 08:42:00,
2013-06-27 02:47:00,57.7,53.2,29.96,West,270,3.5,4.6,85,0.00,CLR,,0.00,WeatherDisplay:10.37,2013-06-27 08:47:00,
2013-06-27 02:52:00,57.6,53.1,29.97,SW,225,3.4,3.5,85,0.00,CLR,,0.00,WeatherDisplay:10.37,2013-06-27 08:52:00,
2013-06-27 02:57:00,57.6,53.1,29.97,WSW,248,2.1,3.5,85,0.00,CLR,,0.00,WeatherDisplay:10.37,2013-06-27 08:57:00,
2013-06-27 03:02:00,57.6,53.4,29.97,SW,225,0.0,0.0,86,0.00,CLR,,0.00,WeatherDisplay:10.37,2013-06-27 09:02:00,
2013-06-27 03:07:00,57.6,53.4,29.97,SSW,202,2.2,3.5,86,0.00,CLR,,0.00,WeatherDisplay:10.37,2013-06-27 09:07:00,
2013-06-27 03:12:00,57.6,53.1,29.97,SW,225,4.1,4.6,85,0.00,CLR,,0.00,WeatherDisplay:10.37,2013-06-27 09:12:00,
2013-06-27 03:17:00,57.6,53.1,29.97,SW,225,4.2,4.6,85,0.00,CLR,,0.00,WeatherDisplay:10.37,2013-06-27 09:17:00,
2013-06-27 03:22:00,57.6,53.1,29.97,SW,225,1.5,2.3,85,0.00,CLR,,0.00,WeatherDisplay:10.37,2013-06-27 09:22:00,
2013-06-27 03:27:00,57.4,53.2,29.96,SW,225,1.7,2.3,86,0.00,CLR,,0.00,WeatherDisplay:10.37,2013-06-27 09:27:00,
2013-06-27 03:32:00,57.2,53.4,29.96,WSW,248,0.0,0.0,87,0.00,CLR,,0.00,WeatherDisplay:10.37,2013-06-27 09:32:00,
2013-06-27 03:37:00,57.0,53.2,29.96,SW,225,2.5,2.7,87,0.00,CLR,,0.00,WeatherDisplay:10.37,2013-06-27 09:37:00,
2013-06-27 03:42:00,57.0,52.9,29.96,SW,225,3.6,3.7,86,0.00,CLR,,0.00,WeatherDisplay:10.37,2013-06-27 09:42:00,
2013-06-27 03:47:00,57.0,52.9,29.96,SW,225,2.4,3.5,86,0.00,CLR,,0.00,WeatherDisplay:10.37,2013-06-27 09:47:00,
2013-06-27 03:52:00,57.0,52.9,29.97,West,270,2.3,2.3,86,0.00,CLR,,0.00,WeatherDisplay:10.37,2013-06-27 09:52:00,
2013-06-27 03:57:00,56.8,52.7,29.97,WSW,248,0.0,0.0,86,0.00,CLR,,0.00,WeatherDisplay:10.37,2013-06-27 09:57:00,
2013-06-27 04:02:00,56.7,52.6,29.97,WNW,292,0.0,0.0,86,0.00,CLR,,0.00,WeatherDisplay:10.37,2013-06-27 10:02:00,
2013-06-27 04:07:00,56.5,52.7,29.97,WSW,248,0.0,0.0,87,0.00,CLR,,0.00,WeatherDisplay:10.37,2013-06-27 10:07:00,
2013-06-27 04:12:00,56.5,53.0,29.97,WSW,248,1.8,1.8,88,0.00,CLR,,0.00,WeatherDisplay:10.37,2013-06-27 10:12:00,
2013-06-27 04:17:00,56.5,53.0,29.97,WSW,248,1.4,1.4,88,0.00,CLR,,0.00,WeatherDisplay:10.37,2013-06-27 10:17:00,
2013-06-27 04:22:00,56.5,53.3,29.97,WSW,248,1.1,1.1,89,0.00,CLR,,0.00,WeatherDisplay:10.37,2013-06-27 10:22:00,
2013-06-27 04:27:00,56.5,53.3,29.97,SW,225,2.7,2.7,89,0.00,CLR,,0.00,WeatherDisplay:10.37,2013-06-27 10:27:00,
2013-06-27 04:32:00,56.8,53.3,29.97,SW,225,3.0,3.5,88,0.00,CLR,,0.00,WeatherDisplay:10.37,2013-06-27 10:32:00,
2013-06-27 04:37:00,57.0,53.5,29.97,SW,225,4.4,4.7,88,0.00,CLR,,0.00,WeatherDisplay:10.37,2013-06-27 10:37:00,
2013-06-27 04:42:00,57.0,53.5,29.97,SW,225,4.1,4.7,88,0.00,CLR,,0.00,WeatherDisplay:10.37,2013-06-27 10:42:00,
2013-06-27 04:47:00,57.0,53.2,29.97,SW,225,3.7,4.6,87,0.00,CLR,,0.00,WeatherDisplay:10.37,2013-06-27 10:47:00,
2013-06-27 04:52:00,57.0,53.2,29.97,SSW,202,3.4,4.2,87,0.00,CLR,,0.00,WeatherDisplay:10.37,2013-06-27 10:52:00,
2013-06-27 04:57:00,57.0,53.2,29.97,SW,225,3.0,3.7,87,0.00,CLR,,0.00,WeatherDisplay:10.37,2013-06-27 10:57:00,
2013-06-27 05:02:00,57.0,53.2,29.97,SW,225,3.0,3.5,87,0.00,CLR,,0.00,WeatherDisplay:10.37,2013-06-27 11:02:00,
2013-06-27 05:07:00,56.8,53.0,29.97,WSW,248,1.5,1.7,87,0.00,CLR,,0.00,WeatherDisplay:10.37,2013-06-27 11:07:00,
2013-06-27 05:12:00,56.7,52.9,29.97,West,270,1.4,1.4,87,0.00,CLR,,0.00,WeatherDisplay:10.37,2013-06-27 11:12:00,
2013-06-27 05:17:00,56.5,53.0,29.97,SW,225,2.0,2.3,88,0.00,CLR,,0.00,WeatherDisplay:10.37,2013-06-27 11:17:00,
2013-06-27 05:22:00,56.5,53.0,29.97,WSW,248,0.3,1.1,88,0.00,CLR,,0.00,WeatherDisplay:10.37,2013-06-27 11:22:00,
2013-06-27 05:27:00,56.5,53.0,29.97,WSW,248,1.1,1.1,88,0.00,CLR,,0.00,WeatherDisplay:10.37,2013-06-27 11:27:00,
2013-06-27 05:33:00,56.5,53.0,29.97,WSW,248,0.3,2.3,88,0.00,CLR,,0.00,WeatherDisplay:10.37,2013-06-27 11:33:00,
2013-06-27 05:38:00,56.8,53.3,29.97,WSW,248,0.6,2.3,88,0.00,CLR,,0.00,WeatherDisplay:10.37,2013-06-27 11:38:00,
2013-06-27 05:43:00,57.7,53.9,29.97,WSW,248,1.8,2.3,87,0.00,CLR,,0.00,WeatherDisplay:10.37,2013-06-27 11:43:00,
2013-06-27 05:48:00,58.5,54.0,29.97,WSW,248,1.5,1.7,85,0.00,CLR,,0.00,WeatherDisplay:10.37,2013-06-27 11:48:00,
2013-06-27 05:53:00,59.0,54.2,29.97,WSW,248,2.1,2.7,84,0.00,CLR,,0.00,WeatherDisplay:10.37,2013-06-27 11:53:00,
2013-06-27 05:58:00,59.2,54.4,29.97,SSW,202,1.8,2.7,84,0.00,CLR,,0.00,WeatherDisplay:10.37,2013-06-27 11:58:00,
2013-06-27 06:03:00,59.4,54.2,29.97,SW,225,3.5,3.7,83,0.00,CLR,,0.00,WeatherDisplay:10.37,2013-06-27 12:03:00,
2013-06-27 06:08:00,59.4,54.2,29.97,WSW,248,2.8,3.5,83,0.00,CLR,,0.00,WeatherDisplay:10.37,2013-06-27 12:08:00,
2013-06-27 06:13:00,59.4,54.6,29.97,SW,225,2.2,2.7,84,0.00,CLR,,0.00,WeatherDisplay:10.37,2013-06-27 12:13:00,
2013-06-27 06:18:00,59.9,55.1,29.98,NNE,22,2.3,3.5,84,0.00,CLR,,0.00,WeatherDisplay:10.37,2013-06-27 12:18:00,
2013-06-27 06:23:00,60.6,54.7,29.98,SSW,202,2.0,2.7,81,0.00,CLR,,0.00,WeatherDisplay:10.37,2013-06-27 12:23:00,
2013-06-27 06:28:00,61.3,54.7,29.98,SW,225,3.1,3.7,79,0.00,CLR,,0.00,WeatherDisplay:10.37,2013-06-27 12:28:00,
2013-06-27 06:33:00,61.9,55.0,29.98,South,180,1.8,2.3,78,0.00,CLR,,0.00,WeatherDisplay:10.37,2013-06-27 12:33:00,
2013-06-27 06:38:00,62.6,55.3,29.98,South,180,1.0,1.7,77,0.00,CLR,,0.00,WeatherDisplay:10.37,2013-06-27 12:38:00,
2013-06-27 06:43:00,63.5,55.4,29.98,SW,225,2.2,2.3,75,0.00,CLR,,0.00,WeatherDisplay:10.37,2013-06-27 12:43:00,
2013-06-27 06:48:00,63.7,55.6,29.98,West,270,1.5,1.7,75,0.00,CLR,,0.00,WeatherDisplay:10.37,2013-06-27 12:48:00,
2013-06-27 06:53:00,63.7,56.0,29.98,WNW,292,1.0,1.1,76,0.00,CLR,,0.00,WeatherDisplay:10.37,2013-06-27 12:53:00,
2013-06-27 06:58:00,64.8,56.3,29.98,SW,225,2.6,3.5,74,0.00,CLR,,0.00,WeatherDisplay:10.37,2013-06-27 12:58:00,
2013-06-27 07:03:00,64.9,56.0,29.98,SW,225,2.8,3.5,73,0.00,CLR,,0.00,WeatherDisplay:10.37,2013-06-27 13:03:00,
2013-06-27 07:08:00,65.3,56.0,29.98,SW,225,3.6,5.8,72,0.00,CLR,,0.00,WeatherDisplay:10.37,2013-06-27 13:08:00,
2013-06-27 07:13:00,65.7,56.0,29.98,SW,225,3.6,4.6,71,0.00,CLR,,0.00,WeatherDisplay:10.37,2013-06-27 13:13:00,
2013-06-27 07:18:00,66.0,56.3,29.98,WSW,248,3.2,3.5,71,0.00,CLR,,0.00,WeatherDisplay:10.37,2013-06-27 13:18:00,
2013-06-27 07:23:00,66.4,56.7,29.98,West,270,3.7,4.6,71,0.00,CLR,,0.00,WeatherDisplay:10.37,2013-06-27 13:23:00,
2013-06-27 07:28:00,67.8,57.3,29.98,SW,225,2.6,3.7,69,0.00,CLR,,0.00,WeatherDisplay:10.37,2013-06-27 13:28:00,
2013-06-27 07:33:00,68.7,57.3,29.98,East,90,1.3,2.3,67,0.00,CLR,,0.00,WeatherDisplay:10.37,2013-06-27 13:33:00,
2013-06-27 07:38:00,68.9,57.9,29.99,WSW,248,2.4,2.7,68,0.00,CLR,,0.00,WeatherDisplay:10.37,2013-06-27 13:38:00,
2013-06-27 07:43:00,68.4,57.0,29.99,SW,225,4.6,5.8,67,0.00,CLR,,0.00,WeatherDisplay:10.37,2013-06-27 13:43:00,
2013-06-27 07:48:00,68.9,57.1,29.99,SSW,202,4.1,5.8,66,0.00,CLR,,0.00,WeatherDisplay:10.37,2013-06-27 13:48:00,
2013-06-27 07:53:00,69.1,57.3,29.99,SW,225,3.7,5.8,66,0.00,CLR,,0.00,WeatherDisplay:10.37,2013-06-27 13:53:00,
2013-06-27 07:58:00,69.4,57.5,29.99,WSW,248,4.0,5.8,66,0.00,CLR,,0.00,WeatherDisplay:10.37,2013-06-27 13:58:00,
2013-06-27 08:03:00,70.3,58.0,29.99,West,270,4.1,6.9,65,0.00,CLR,,0.00,WeatherDisplay:10.37,2013-06-27 14:03:00,
2013-06-27 08:08:00,70.9,58.5,29.99,SW,225,3.8,5.8,65,0.00,CLR,,0.00,WeatherDisplay:10.37,2013-06-27 14:08:00,
2013-06-27 08:13:00,70.7,58.4,29.99,SSW,202,5.4,6.3,65,0.00,CLR,,0.00,WeatherDisplay:10.37,2013-06-27 14:13:00,
2013-06-27 08:18:00,71.1,58.7,29.99,WSW,248,4.7,5.8,65,0.00,CLR,,0.00,WeatherDisplay:10.37,2013-06-27 14:18:00,
2013-06-27 08:23:00,70.7,58.4,29.99,WSW,248,4.0,5.8,65,0.00,CLR,,0.00,WeatherDisplay:10.37,2013-06-27 14:23:00,
2013-06-27 08:28:00,70.9,59.0,29.99,WSW,248,2.8,4.6,66,0.00,CLR,,0.00,WeatherDisplay:10.37,2013-06-27 14:28:00,
2013-06-27 08:33:00,71.4,58.6,29.99,SW,225,4.7,5.8,64,0.00,CLR,,0.00,WeatherDisplay:10.37,2013-06-27 14:33:00,
2013-06-27 08:38:00,72.0,58.7,29.99,SW,225,5.5,6.8,63,0.00,CLR,,0.00,WeatherDisplay:10.37,2013-06-27 14:38:00,
2013-06-27 08:43:00,72.3,57.6,29.99,South,180,3.2,4.6,60,0.00,CLR,,0.00,WeatherDisplay:10.37,2013-06-27 14:43:00,
2013-06-27 08:48:00,72.7,58.0,29.99,NNE,22,4.1,6.3,60,0.00,CLR,,0.00,WeatherDisplay:10.37,2013-06-27 14:48:00,
2013-06-27 08:53:00,72.9,56.8,29.99,West,270,5.3,9.2,57,0.00,CLR,,0.00,WeatherDisplay:10.37,2013-06-27 14:53:00,
2013-06-27 08:58:00,72.9,56.3,29.99,SW,225,3.2,4.7,56,0.00,CLR,,0.00,WeatherDisplay:10.37,2013-06-27 14:58:00,
2013-06-27 09:03:00,73.2,56.1,29.99,ENE,68,3.9,4.6,55,0.00,CLR,,0.00,WeatherDisplay:10.37,2013-06-27 15:03:00,
2013-06-27 09:08:00,73.4,55.2,29.99,SSW,202,4.4,5.8,53,0.00,CLR,,0.00,WeatherDisplay:10.37,2013-06-27 15:08:00,
2013-06-27 09:13:00,73.6,54.9,29.99,WNW,292,3.7,5.8,52,0.00,CLR,,0.00,WeatherDisplay:10.37,2013-06-27 15:13:00,
2013-06-27 09:18:00,73.9,55.7,29.99,WNW,292,2.4,3.5,53,0.00,CLR,,0.00,WeatherDisplay:10.37,2013-06-27 15:18:00,
2013-06-27 09:23:00,73.9,55.2,29.99,WSW,248,2.9,4.6,52,0.00,CLR,,0.00,WeatherDisplay:10.37,2013-06-27 15:23:00,
2013-06-27 09:28:00,74.3,56.1,29.99,WNW,292,2.6,4.6,53,0.00,CLR,,0.00,WeatherDisplay:10.37,2013-06-27 15:28:00,
2013-06-27 09:33:00,75.0,55.1,29.99,NNE,22,2.6,3.7,50,0.00,CLR,,0.00,WeatherDisplay:10.37,2013-06-27 15:33:00,
2013-06-27 09:38:00,74.8,54.4,29.99,SW,225,3.3,5.8,49,0.00,CLR,,0.00,WeatherDisplay:10.37,2013-06-27 15:38:00,
2013-06-27 09:43:00,75.0,54.0,29.99,WNW,292,3.9,4.7,48,0.00,CLR,,0.00,WeatherDisplay:10.37,2013-06-27 15:43:00,
2013-06-27 09:48:00,75.4,56.0,29.99,WSW,248,3.0,5.8,51,0.00,CLR,,0.00,WeatherDisplay:10.37,2013-06-27 15:48:00,
2013-06-27 09:53:00,75.2,55.8,29.99,ESE,112,2.6,4.7,51,0.00,CLR,,0.00,WeatherDisplay:10.37,2013-06-27 15:53:00,
2013-06-27 09:58:00,75.7,56.8,29.99,WSW,248,2.9,5.8,52,0.00,CLR,,0.00,WeatherDisplay:10.37,2013-06-27 15:58:00,
2013-06-27 10:03:00,76.1,54.4,29.99,NNW,338,5.5,5.8,47,0.00,CLR,,0.00,WeatherDisplay:10.37,2013-06-27 16:03:00,
2013-06-27 10:08:00,76.1,53.8,29.99,SSW,202,6.9,9.2,46,0.00,CLR,,0.00,WeatherDisplay:10.37,2013-06-27 16:08:00,
2013-06-27 10:13:00,76.3,55.2,29.99,SE,135,3.6,4.2,48,0.00,CLR,,0.00,WeatherDisplay:10.37,2013-06-27 16:13:00,
2013-06-27 10:18:00,76.5,54.8,29.99,SE,135,3.0,5.8,47,0.00,CLR,,0.00,WeatherDisplay:10.37,2013-06-27 16:18:00,
2013-06-27 10:23:00,76.8,54.5,29.99,SW,225,3.5,5.8,46,0.00,CLR,,0.00,WeatherDisplay:10.37,2013-06-27 16:23:00,
2013-06-27 10:28:00,77.0,55.2,29.99,SW,225,4.4,5.8,47,0.00,CLR,,0.00,WeatherDisplay:10.37,2013-06-27 16:28:00,
2013-06-27 10:33:00,76.8,53.8,29.99,SW,225,5.3,7.8,45,0.00,CLR,,0.00,WeatherDisplay:10.37,2013-06-27 16:33:00,
2013-06-27 10:38:00,77.5,54.5,29.99,West,270,4.7,8.1,45,0.00,CLR,,0.00,WeatherDisplay:10.37,2013-06-27 16:38:00,
2013-06-27 10:43:00,77.2,55.4,29.99,WNW,292,3.7,4.6,47,0.00,CLR,,0.00,WeatherDisplay:10.37,2013-06-27 16:43:00,
2013-06-27 10:48:00,77.5,54.5,29.99,SW,225,6.2,6.3,45,0.00,CLR,,0.00,WeatherDisplay:10.37,2013-06-27 16:48:00,
2013-06-27 10:53:00,78.1,55.0,29.99,SSW,202,3.8,4.6,45,0.00,CLR,,0.00,WeatherDisplay:10.37,2013-06-27 16:53:00,
2013-06-27 10:58:00,77.9,54.2,29.99,SW,225,6.0,9.2,44,0.00,CLR,,0.00,WeatherDisplay:10.37,2013-06-27 16:58:00,
2013-06-27 11:03:00,78.1,54.4,30.00,South,180,4.2,5.8,44,0.00,CLR,,0.00,WeatherDisplay:10.37,2013-06-27 17:03:00,
2013-06-27 11:08:00,78.6,51.6,30.00,WNW,292,5.2,6.9,39,0.00,CLR,,0.00,WeatherDisplay:10.37,2013-06-27 17:08:00,
2013-06-27 11:13:00,79.2,52.8,30.00,SW,225,4.8,6.8,40,0.00,CLR,,0.00,WeatherDisplay:10.37,2013-06-27 17:13:00,
2013-06-27 11:19:00,78.8,52.4,30.00,WSW,248,3.2,8.1,40,0.00,CLR,,0.00,WeatherDisplay:10.37,2013-06-27 17:19:00,
2013-06-27 11:24:00,79.5,54.4,30.00,NNW,338,3.3,5.8,42,0.00,CLR,,0.00,WeatherDisplay:10.37,2013-06-27 17:24:00,
2013-06-27 11:29:00,79.0,53.3,30.00,SSW,202,4.6,9.2,41,0.00,CLR,,0.00,WeatherDisplay:10.37,2013-06-27 17:29:00,
2013-06-27 11:34:00,78.6,51.6,30.00,West,270,9.4,10.4,39,0.00,CLR,,0.00,WeatherDisplay:10.37,2013-06-27 17:34:00,
2013-06-27 11:39:00,78.4,51.4,30.00,West,270,4.9,6.9,39,0.00,CLR,,0.00,WeatherDisplay:10.37,2013-06-27 17:39:00,
2013-06-27 11:44:00,78.8,51.7,30.00,WNW,292,6.0,10.4,39,0.00,CLR,,0.00,WeatherDisplay:10.37,2013-06-27 17:44:00,
2013-06-27 11:49:00,79.7,52.5,30.00,NNE,22,7.0,9.2,39,0.00,CLR,,0.00,WeatherDisplay:10.37,2013-06-27 17:49:00,
2013-06-27 11:54:00,80.1,52.9,30.00,South,180,4.9,8.1,39,0.00,CLR,,0.00,WeatherDisplay:10.37,2013-06-27 17:54:00,
2013-06-27 11:59:00,79.3,52.9,30.00,West,270,5.0,8.1,40,0.00,CLR,,0.00,WeatherDisplay:10.37,2013-06-27 17:59:00,
2013-06-27 12:04:00,79.3,52.9,30.00,WNW,292,3.9,5.8,40,0.00,CLR,,0.00,WeatherDisplay:10.37,2013-06-27 18:04:00,
2013-06-27 12:09:00,79.5,52.4,30.00,NW,315,5.6,9.2,39,0.00,CLR,,0.00,WeatherDisplay:10.37,2013-06-27 18:09:00,
2013-06-27 12:14:00,80.1,53.6,30.00,West,270,4.6,5.8,40,0.00,CLR,,0.00,WeatherDisplay:10.37,2013-06-27 18:14:00,
2013-06-27 12:19:00,81.0,53.0,30.00,WNW,292,5.8,9.2,38,0.00,CLR,,0.00,WeatherDisplay:10.37,2013-06-27 18:19:00,
2013-06-27 12:24:00,80.2,50.8,30.00,North,360,5.6,8.3,36,0.00,CLR,,0.00,WeatherDisplay:10.37,2013-06-27 18:24:00,
2013-06-27 12:29:00,80.6,51.2,30.01,West,270,7.3,9.2,36,0.00,CLR,,0.00,WeatherDisplay:10.37,2013-06-27 18:29:00,
2013-06-27 12:34:00,81.0,51.5,30.01,WNW,292,7.3,9.4,36,0.00,CLR,,0.00,WeatherDisplay:10.37,2013-06-27 18:34:00,
2013-06-27 12:39:00,81.1,52.4,30.00,WNW,292,5.3,5.8,37,0.00,CLR,,0.00,WeatherDisplay:10.37,2013-06-27 18:39:00,
2013-06-27 12:44:00,81.5,53.4,30.00,WNW,292,6.3,10.9,38,0.00,CLR,,0.00,WeatherDisplay:10.37,2013-06-27 18:44:00,
2013-06-27 12:49:00,80.4,52.5,30.00,NNW,338,5.3,10.4,38,0.00,CLR,,0.00,WeatherDisplay:10.37,2013-06-27 18:49:00,
2013-06-27 12:54:00,81.0,53.0,30.01,NNW,338,7.8,10.4,38,0.00,CLR,,0.00,WeatherDisplay:10.37,2013-06-27 18:54:00,
2013-06-27 12:59:00,81.0,52.3,30.01,ENE,68,5.2,10.4,37,0.00,CLR,,0.00,WeatherDisplay:10.37,2013-06-27 18:59:00,
2013-06-27 13:04:00,81.3,53.3,30.01,West,270,4.2,5.8,38,0.00,CLR,,0.00,WeatherDisplay:10.37,2013-06-27 19:04:00,
2013-06-27 13:09:00,81.9,53.1,30.01,North,360,5.3,6.9,37,0.00,CLR,,0.00,WeatherDisplay:10.37,2013-06-27 19:09:00,
2013-06-27 13:14:00,80.6,52.6,30.01,WNW,292,4.1,5.8,38,0.00,CLR,,0.00,WeatherDisplay:10.37,2013-06-27 19:14:00,
2013-06-27 13:19:00,81.5,53.4,30.01,ESE,112,6.2,8.1,38,0.00,CLR,,0.00,WeatherDisplay:10.37,2013-06-27 19:19:00,
2013-06-27 13:24:00,81.7,53.6,30.01,NE,45,6.3,8.1,38,0.00,CLR,,0.00,WeatherDisplay:10.37,2013-06-27 19:24:00,
2013-06-27 13:29:00,81.5,53.4,30.01,West,270,5.8,6.9,38,0.00,CLR,,0.00,WeatherDisplay:10.37,2013-06-27 19:29:00,
2013-06-27 13:34:00,81.5,53.4,30.01,West,270,4.3,8.1,38,0.00,CLR,,0.00,WeatherDisplay:10.37,2013-06-27 19:34:00,
2013-06-27 13:39:00,81.1,51.6,30.01,WNW,292,9.2,11.5,36,0.00,CLR,,0.00,WeatherDisplay:10.37,2013-06-27 19:39:00,
2013-06-27 13:44:00,81.7,52.1,30.01,West,270,8.0,11.5,36,0.00,CLR,,0.00,WeatherDisplay:10.37,2013-06-27 19:44:00,
2013-06-27 13:49:00,82.2,54.1,30.01,WNW,292,4.1,6.3,38,0.00,CLR,,0.00,WeatherDisplay:10.37,2013-06-27 19:49:00,
2013-06-27 13:54:00,81.5,54.8,30.01,NW,315,3.1,5.8,40,0.00,CLR,,0.00,WeatherDisplay:10.37,2013-06-27 19:54:00,
2013-06-27 13:59:00,82.2,54.8,30.01,WNW,292,2.7,2.7,39,0.00,CLR,,0.00,WeatherDisplay:10.37,2013-06-27 19:59:00,
2013-06-27 14:04:00,81.5,52.7,30.01,West,270,3.8,8.1,37,0.00,CLR,,0.00,WeatherDisplay:10.37,2013-06-27 20:04:00,
2013-06-27 14:09:00,81.5,52.7,30.01,NE,45,7.3,9.2,37,0.00,CLR,,0.00,WeatherDisplay:10.37,2013-06-27 20:09:00,
2013-06-27 14:14:00,81.0,52.3,30.01,SSW,202,5.3,5.8,37,0.00,CLR,,0.00,WeatherDisplay:10.37,2013-06-27 20:14:00,
2013-06-27 14:19:00,80.8,52.1,30.01,ENE,68,4.5,5.8,37,0.00,CLR,,0.00,WeatherDisplay:10.37,2013-06-27 20:19:00,
2013-06-27 14:24:00,80.1,52.2,30.01,ESE,112,4.4,9.2,38,0.00,CLR,,0.00,WeatherDisplay:10.37,2013-06-27 20:24:00,
2013-06-27 14:30:00,80.4,51.0,30.01,NNW,338,7.2,12.7,36,0.00,CLR,,0.00,WeatherDisplay:10.37,2013-06-27 20:30:00,
2013-06-27 14:35:00,80.1,52.2,30.01,West,270,7.4,11.5,38,0.00,CLR,,0.00,WeatherDisplay:10.37,2013-06-27 20:35:00,
2013-06-27 14:41:00,80.2,52.3,30.01,WNW,292,5.1,8.1,38,0.00,CLR,,0.00,WeatherDisplay:10.37,2013-06-27 20:41:00,
2013-06-27 14:46:00,80.1,52.2,30.01,NW,315,5.8,5.8,38,0.00,CLR,,0.00,WeatherDisplay:10.37,2013-06-27 20:46:00,
2013-06-27 14:51:00,80.1,52.2,30.01,West,270,5.2,5.8,38,0.00,CLR,,0.00,WeatherDisplay:10.37,2013-06-27 20:51:00,
2013-06-27 14:56:00,80.4,50.2,30.01,West,270,9.2,11.5,35,0.00,CLR,,0.00,WeatherDisplay:10.37,2013-06-27 20:56:00,
2013-06-27 15:01:00,79.9,51.3,30.01,South,180,8.1,11.9,37,0.00,CLR,,0.00,WeatherDisplay:10.37,2013-06-27 21:01:00,
2013-06-27 15:06:00,80.1,51.5,30.02,NW,315,4.7,12.7,37,0.00,CLR,,0.00,WeatherDisplay:10.37,2013-06-27 21:06:00,
2013-06-27 15:11:00,80.1,51.5,30.02,West,270,5.2,8.1,37,0.00,CLR,,0.00,WeatherDisplay:10.37,2013-06-27 21:11:00,
2013-06-27 15:16:00,80.2,51.6,30.01,NW,315,6.2,10.4,37,0.00,CLR,,0.00,WeatherDisplay:10.37,2013-06-27 21:16:00,
2013-06-27 15:22:00,80.1,52.9,30.01,ESE,112,3.9,10.4,39,0.00,CLR,,0.00,WeatherDisplay:10.37,2013-06-27 21:22:00,
2013-06-27 15:27:00,80.4,51.7,30.01,WSW,248,5.1,6.9,37,0.00,CLR,,0.00,WeatherDisplay:10.37,2013-06-27 21:27:00,
2013-06-27 15:32:00,80.2,49.3,30.01,SE,135,6.7,12.7,34,0.00,CLR,,0.00,WeatherDisplay:10.37,2013-06-27 21:32:00,
2013-06-27 15:37:00,80.2,50.1,30.02,SW,225,7.3,15.0,35,0.00,CLR,,0.00,WeatherDisplay:10.37,2013-06-27 21:37:00,
2013-06-27 15:42:00,80.1,49.2,30.02,WSW,248,9.3,16.0,34,0.00,CLR,,0.00,WeatherDisplay:10.37,2013-06-27 21:42:00,
2013-06-27 15:47:00,80.2,48.5,30.02,NW,315,5.4,11.5,33,0.00,CLR,,0.00,WeatherDisplay:10.37,2013-06-27 21:47:00,
2013-06-27 15:53:00,80.1,48.4,30.02,NNW,338,4.9,6.9,33,0.00,CLR,,0.00,WeatherDisplay:10.37,2013-06-27 21:53:00,
2013-06-27 15:58:00,80.6,49.6,30.02,WSW,248,6.0,10.4,34,0.00,CLR,,0.00,WeatherDisplay:10.37,2013-06-27 21:58:00,
2013-06-27 16:03:00,81.0,48.4,30.02,WSW,248,7.5,11.9,32,0.00,CLR,,0.00,WeatherDisplay:10.37,2013-06-27 22:03:00,
2013-06-27 16:08:00,80.6,48.8,30.02,NW,315,7.0,10.4,33,0.00,CLR,,0.00,WeatherDisplay:10.37,2013-06-27 22:08:00,
2013-06-27 16:13:00,80.2,47.7,30.02,West,270,10.8,11.5,32,0.00,CLR,,0.00,WeatherDisplay:10.37,2013-06-27 22:13:00,
2013-06-27 16:18:00,79.9,48.2,30.02,WSW,248,9.0,11.5,33,0.00,CLR,,0.00,WeatherDisplay:10.37,2013-06-27 22:18:00,
2013-06-27 16:24:00,79.7,48.8,30.02,NW,315,5.5,10.4,34,0.00,CLR,,0.00,WeatherDisplay:10.37,2013-06-27 22:24:00,
2013-06-27 16:29:00,80.2,49.3,30.02,North,360,5.8,8.1,34,0.00,CLR,,0.00,WeatherDisplay:10.37,2013-06-27 22:29:00,
2013-06-27 16:35:00,79.9,49.0,30.02,NW,315,6.5,9.4,34,0.00,CLR,,0.00,WeatherDisplay:10.37,2013-06-27 22:35:00,
2013-06-27 16:40:00,79.7,50.4,30.02,WNW,292,3.8,5.8,36,0.00,CLR,,0.00,WeatherDisplay:10.37,2013-06-27 22:40:00,
2013-06-27 16:45:00,80.4,49.5,30.02,WNW,292,8.2,9.2,34,0.00,CLR,,0.00,WeatherDisplay:10.37,2013-06-27 22:45:00,
2013-06-27 16:50:00,80.2,49.3,30.02,NE,45,6.2,8.1,34,0.00,CLR,,0.00,WeatherDisplay:10.37,2013-06-27 22:50:00,
2013-06-27 16:56:00,80.2,50.1,30.02,West,270,5.7,10.4,35,0.00,CLR,,0.00,WeatherDisplay:10.37,2013-06-27 22:56:00,
2013-06-27 17:02:00,80.2,50.1,30.02,SW,225,4.1,9.2,35,0.00,CLR,,0.00,WeatherDisplay:10.37,2013-06-27 23:02:00,
2013-06-27 17:07:00,80.2,51.6,30.02,NNE,22,6.5,8.1,37,0.00,CLR,,0.00,WeatherDisplay:10.37,2013-06-27 23:07:00,
2013-06-27 17:12:00,80.1,50.0,30.02,West,270,8.8,10.4,35,0.00,CLR,,0.00,WeatherDisplay:10.37,2013-06-27 23:12:00,
2013-06-27 17:18:00,79.7,51.8,30.02,West,270,4.5,10.4,38,0.00,CLR,,0.00,WeatherDisplay:10.37,2013-06-27 23:18:00,
2013-06-27 17:23:00,79.7,50.4,30.02,West,270,6.5,8.1,36,0.00,CLR,,0.00,WeatherDisplay:10.37,2013-06-27 23:23:00,
2013-06-27 17:28:00,80.2,50.8,30.02,ENE,68,5.2,9.2,36,0.00,CLR,,0.00,WeatherDisplay:10.37,2013-06-27 23:28:00,
2013-06-27 17:33:00,79.9,49.0,30.02,West,270,12.8,17.3,34,0.00,CLR,,0.00,WeatherDisplay:10.37,2013-06-27 23:33:00,
2013-06-27 17:39:00,79.5,50.2,30.02,SSE,158,4.9,6.8,36,0.00,CLR,,0.00,WeatherDisplay:10.37,2013-06-27 23:39:00,
2013-06-27 17:44:00,79.0,50.5,30.02,NNW,338,7.5,10.4,37,0.00,CLR,,0.00,WeatherDisplay:10.37,2013-06-27 23:44:00,
2013-06-27 17:49:00,79.3,51.5,30.02,NNW,338,5.5,13.0,38,0.00,CLR,,0.00,WeatherDisplay:10.37,2013-06-27 23:49:00,
2013-06-27 17:55:00,79.3,49.3,30.02,NNW,338,6.9,12.7,35,0.00,CLR,,0.00,WeatherDisplay:10.37,2013-06-27 23:55:00,
2013-06-27 18:00:00,79.0,49.8,30.02,West,270,6.5,12.7,36,0.00,CLR,,0.00,WeatherDisplay:10.37,2013-06-28 00:00:00,
2013-06-27 18:05:00,79.2,49.9,30.02,West,270,5.5,6.9,36,0.00,CLR,,0.00,WeatherDisplay:10.37,2013-06-28 00:05:00,
2013-06-27 18:10:00,78.8,50.3,30.02,SSW,202,5.8,5.8,37,0.00,CLR,,0.00,WeatherDisplay:10.37,2013-06-28 00:10:00,
2013-06-27 18:16:00,78.6,50.1,30.03,WNW,292,8.1,11.9,37,0.00,CLR,,0.00,WeatherDisplay:10.37,2013-06-28 00:16:00,
2013-06-27 18:21:00,78.4,50.7,30.03,NW,315,8.5,10.4,38,0.00,CLR,,0.00,WeatherDisplay:10.37,2013-06-28 00:21:00,
2013-06-27 18:26:00,78.3,50.6,30.03,West,270,7.2,8.1,38,0.00,CLR,,0.00,WeatherDisplay:10.37,2013-06-28 00:26:00,
2013-06-27 18:31:00,78.1,51.1,30.03,WNW,292,5.2,9.2,39,0.00,CLR,,0.00,WeatherDisplay:10.37,2013-06-28 00:31:00,
2013-06-27 18:36:00,78.1,51.1,30.03,NNW,338,5.1,10.4,39,0.00,CLR,,0.00,WeatherDisplay:10.37,2013-06-28 00:36:00,
2013-06-27 18:42:00,78.1,51.1,30.03,NW,315,5.5,10.4,39,0.00,CLR,,0.00,WeatherDisplay:10.37,2013-06-28 00:42:00,
2013-06-27 18:47:00,77.9,51.6,30.03,WNW,292,4.3,4.7,40,0.00,CLR,,0.00,WeatherDisplay:10.37,2013-06-28 00:47:00,
2013-06-27 18:52:00,77.5,51.9,30.03,West,270,3.5,5.3,41,0.00,CLR,,0.00,WeatherDisplay:10.37,2013-06-28 00:52:00,
2013-06-27 18:57:00,77.5,52.6,30.03,West,270,4.4,9.2,42,0.00,CLR,,0.00,WeatherDisplay:10.37,2013-06-28 00:57:00,
2013-06-27 19:03:00,77.5,51.9,30.03,WSW,248,7.8,8.1,41,0.00,CLR,,0.00,WeatherDisplay:10.37,2013-06-28 01:03:00,
2013-06-27 19:08:00,77.5,51.9,30.03,NW,315,6.6,8.1,41,0.00,CLR,,0.00,WeatherDisplay:10.37,2013-06-28 01:08:00,
2013-06-27 19:13:00,77.5,53.9,30.03,West,270,1.8,2.3,44,0.00,CLR,,0.00,WeatherDisplay:10.37,2013-06-28 01:13:00,
2013-06-27 19:18:00,77.2,53.0,30.04,WNW,292,2.1,3.5,43,0.00,CLR,,0.00,WeatherDisplay:10.37,2013-06-28 01:18:00,
2013-06-27 19:24:00,77.2,53.0,30.04,West,270,3.1,5.8,43,0.00,CLR,,0.00,WeatherDisplay:10.37,2013-06-28 01:24:00,
2013-06-27 19:29:00,77.2,53.0,30.03,NW,315,4.0,5.8,43,0.00,CLR,,0.00,WeatherDisplay:10.37,2013-06-28 01:29:00,
2013-06-27 19:34:00,77.2,53.6,30.03,NE,45,2.5,4.6,44,0.00,CLR,,0.00,WeatherDisplay:10.37,2013-06-28 01:34:00,
2013-06-27 19:39:00,77.0,54.0,30.03,NNW,338,3.9,5.8,45,0.00,CLR,,0.00,WeatherDisplay:10.37,2013-06-28 01:39:00,
2013-06-27 19:45:00,76.6,54.3,30.03,NW,315,2.2,4.6,46,0.00,CLR,,0.00,WeatherDisplay:10.37,2013-06-28 01:45:00,
2013-06-27 19:50:00,76.1,54.4,30.04,NE,45,1.6,6.9,47,0.00,CLR,,0.00,WeatherDisplay:10.37,2013-06-28 01:50:00,
2013-06-27 19:55:00,75.9,54.2,30.04,West,270,3.1,3.7,47,0.00,CLR,,0.00,WeatherDisplay:10.37,2013-06-28 01:55:00,
2013-06-27 20:01:00,75.7,54.6,30.04,West,270,2.2,2.7,48,0.00,CLR,,0.00,WeatherDisplay:10.37,2013-06-28 02:01:00,
2013-06-27 20:06:00,75.2,54.7,30.04,NNW,338,2.0,3.7,49,0.00,CLR,,0.00,WeatherDisplay:10.37,2013-06-28 02:06:00,
2013-06-27 20:11:00,75.0,54.0,30.04,WNW,292,2.2,4.6,48,0.00,CLR,,0.00,WeatherDisplay:10.37,2013-06-28 02:11:00,
2013-06-27 20:17:00,74.8,54.4,30.04,NNE,22,0.9,4.6,49,0.00,CLR,,0.00,WeatherDisplay:10.37,2013-06-28 02:17:00,
2013-06-27 20:22:00,74.3,54.5,30.04,West,270,1.7,3.5,50,0.00,CLR,,0.00,WeatherDisplay:10.37,2013-06-28 02:22:00,
2013-06-27 20:28:00,73.8,54.0,30.04,West,270,2.9,3.7,50,0.00,CLR,,0.00,WeatherDisplay:10.37,2013-06-28 02:28:00,
2013-06-27 20:33:00,73.4,54.2,30.04,WSW,248,0.6,2.7,51,0.00,CLR,,0.00,WeatherDisplay:10.37,2013-06-28 02:33:00,
2013-06-27 20:38:00,73.0,54.3,30.04,West,270,5.3,6.9,52,0.00,CLR,,0.00,WeatherDisplay:10.37,2013-06-28 02:38:00,
2013-06-27 20:43:00,72.5,54.4,30.04,ENE,68,2.0,2.3,53,0.00,CLR,,0.00,WeatherDisplay:10.37,2013-06-28 02:43:00,
2013-06-27 20:48:00,71.8,54.8,30.04,South,180,1.1,3.5,55,0.00,CLR,,0.00,WeatherDisplay:10.37,2013-06-28 02:48:00,
2013-06-27 20:54:00,71.1,54.6,30.04,WSW,248,0.5,1.1,56,0.00,CLR,,0.00,WeatherDisplay:10.37,2013-06-28 02:54:00,
2013-06-27 20:59:00,70.5,54.5,30.04,WNW,292,0.0,1.1,57,0.00,CLR,,0.00,WeatherDisplay:10.37,2013-06-28 02:59:00,
2013-06-27 21:05:00,70.2,54.2,30.05,West,270,0.3,2.3,57,0.00,CLR,,0.00,WeatherDisplay:10.37,2013-06-28 03:05:00,
2013-06-27 21:12:00,69.4,54.4,30.05,WSW,248,3.0,3.7,59,0.00,CLR,,0.00,WeatherDisplay:10.37,2013-06-28 03:12:00,
2013-06-27 21:18:00,68.7,54.3,30.05,West,270,0.1,2.2,60,0.00,CLR,,0.00,WeatherDisplay:10.37,2013-06-28 03:18:00,
2013-06-27 21:23:00,68.5,54.1,30.05,West,270,1.7,1.7,60,0.00,CLR,,0.00,WeatherDisplay:10.37,2013-06-28 03:23:00,
2013-06-27 21:28:00,67.8,53.9,30.05,SW,225,0.2,1.1,61,0.00,CLR,,0.00,WeatherDisplay:10.37,2013-06-28 03:28:00,
2013-06-27 21:34:00,67.5,54.0,30.05,West,270,0.3,1.7,62,0.00,CLR,,0.00,WeatherDisplay:10.37,2013-06-28 03:34:00,
2013-06-27 21:39:00,67.3,53.4,30.06,SW,225,1.2,2.7,61,0.00,CLR,,0.00,WeatherDisplay:10.37,2013-06-28 03:39:00,
2013-06-27 21:44:00,66.9,53.5,30.06,SW,225,1.4,2.3,62,0.00,CLR,,0.00,WeatherDisplay:10.37,2013-06-28 03:44:00,
2013-06-27 21:50:00,66.4,53.8,30.06,WSW,248,2.4,2.7,64,0.00,CLR,,0.00,WeatherDisplay:10.37,2013-06-28 03:50:00,
2013-06-27 21:55:00,65.8,53.7,30.06,SW,225,3.2,3.5,65,0.00,CLR,,0.00,WeatherDisplay:10.37,2013-06-28 03:55:00,
2013-06-27 22:00:00,65.7,53.6,30.06,WSW,248,1.5,2.3,65,0.00,CLR,,0.00,WeatherDisplay:10.37,2013-06-28 04:00:00,
2013-06-27 22:01:00,65.7,53.6,30.06,WSW,248,1.7,2.3,65,0.00,CLR,,0.00,WeatherDisplay:10.37,2013-06-28 04:01:00,
2013-06-27 22:06:00,65.3,53.6,30.06,WSW,248,2.3,2.7,66,0.00,CLR,,0.00,WeatherDisplay:10.37,2013-06-28 04:06:00,
2013-06-27 22:11:00,64.9,53.3,30.06,West,270,0.2,2.3,66,0.00,CLR,,0.00,WeatherDisplay:10.37,2013-06-28 04:11:00,
2013-06-27 22:16:00,64.8,53.2,30.06,WSW,248,0.0,0.0,66,0.00,CLR,,0.00,WeatherDisplay:10.37,2013-06-28 04:16:00,
2013-06-27 22:21:00,64.6,53.0,30.06,SW,225,0.0,0.0,66,0.00,CLR,,0.00,WeatherDisplay:10.37,2013-06-28 04:21:00,
2013-06-27 22:26:00,64.2,53.0,30.07,SSW,202,1.8,2.3,67,0.00,CLR,,0.00,WeatherDisplay:10.37,2013-06-28 04:26:00,
2013-06-27 22:31:00,63.9,52.7,30.07,SW,225,2.0,2.3,67,0.00,CLR,,0.00,WeatherDisplay:10.37,2013-06-28 04:31:00,
2013-06-27 22:36:00,63.5,52.3,30.07,SW,225,2.6,3.7,67,0.00,CLR,,0.00,WeatherDisplay:10.37,2013-06-28 04:36:00,
2013-06-27 22:41:00,63.3,52.6,30.07,SW,225,2.7,3.5,68,0.00,CLR,,0.00,WeatherDisplay:10.37,2013-06-28 04:41:00,
2013-06-27 22:46:00,63.1,52.4,30.07,WSW,248,2.7,3.5,68,0.00,CLR,,0.00,WeatherDisplay:10.37,2013-06-28 04:46:00,
2013-06-27 22:51:00,63.0,52.3,30.07,WSW,248,3.4,3.7,68,0.00,CLR,,0.00,WeatherDisplay:10.37,2013-06-28 04:51:00,
2013-06-27 22:56:00,63.0,52.3,30.07,SW,225,3.9,4.6,68,0.00,CLR,,0.00,WeatherDisplay:10.37,2013-06-28 04:56:00,
2013-06-27 23:01:00,62.8,52.1,30.07,SW,225,3.7,4.2,68,0.00,CLR,,0.00,WeatherDisplay:10.37,2013-06-28 05:01:00,
2013-06-27 23:06:00,62.4,52.1,30.07,SW,225,3.0,4.6,69,0.00,CLR,,0.00,WeatherDisplay:10.37,2013-06-28 05:06:00,
2013-06-27 23:11:00,62.2,52.3,30.07,WSW,248,3.1,3.5,70,0.00,CLR,,0.00,WeatherDisplay:10.37,2013-06-28 05:11:00,
2013-06-27 23:16:00,61.9,52.0,30.07,SW,225,3.4,4.2,70,0.00,CLR,,0.00,WeatherDisplay:10.37,2013-06-28 05:16:00,
2013-06-27 23:21:00,61.7,52.6,30.07,WSW,248,3.8,4.6,72,0.00,CLR,,0.00,WeatherDisplay:10.37,2013-06-28 05:21:00,
2013-06-27 23:26:00,61.5,52.8,30.07,SW,225,3.5,4.6,73,0.00,CLR,,0.00,WeatherDisplay:10.37,2013-06-28 05:26:00,
2013-06-27 23:31:00,61.2,52.8,30.07,SSW,202,2.3,2.3,74,0.00,CLR,,0.00,WeatherDisplay:10.37,2013-06-28 05:31:00,
2013-06-27 23:36:00,60.8,52.8,30.07,SW,225,2.3,2.7,75,0.00,CLR,,0.00,WeatherDisplay:10.37,2013-06-28 05:36:00,
2013-06-27 23:41:00,60.4,52.4,30.08,WSW,248,2.1,2.3,75,0.00,CLR,,0.00,WeatherDisplay:10.37,2013-06-28 05:41:00,
2013-06-27 23:46:00,60.3,52.7,30.08,SW,225,2.7,3.5,76,0.00,CLR,,0.00,WeatherDisplay:10.37,2013-06-28 05:46:00,
2013-06-27 23:51:00,60.1,52.5,30.07,WSW,248,2.4,2.7,76,0.00,CLR,,0.00,WeatherDisplay:10.37,2013-06-28 05:51:00,
2013-06-27 23:56:00,59.9,52.3,30.07,SW,225,2.8,2.8,76,0.00,CLR,,0.00,WeatherDisplay:10.37,2013-06-28 05:56:00,